Fort Smith, AR

12:13 PM CDT on July 24, 2017 (GMT -0500)
Fort Smith Regional

Weather History for KFSM - March, 2014

Change the Weather History Date:

Sunday, March 30, 2014

  Actual Average Record
Temperature  
Mean Temperature 58 °F 57 °F  
Max Temperature 77 °F 69 °F 92 °F (1946)
Min Temperature 39 °F 45 °F 25 °F (1975)
Degree Days  
Heating Degree Days 7 9  
Month to date heating degree days 447 378  
Since 1 July heating degree days 3392 3051  
Cooling Degree Days 0 1  
Month to date cooling degree days 0 8  
Year to date cooling degree days 0 9  
Growing Degree Days 8 (Base 50)    
Moisture  
Dew Point 38 °F    
Average Humidity 56    
Maximum Humidity 89    
Minimum Humidity 22    
Precipitation  
Precipitation 0.00 in 0.14 in 1.91 in (1985)
Month to date precipitation 3.74 3.71  
Year to date precipitation 5.51 9.28  
Sea Level Pressure  
Sea Level Pressure 30.14 in    
Wind  
Wind Speed 7 mph (East)    
Max Wind Speed 15 mph    
Max Gust Speed 19 mph    
Visibility 10 miles    
Events      
T = Trace of Precipitation, MM = Missing Value Source: NWS Daily Summary

Daily Weather History Graph

Daily Weather History Graph

Search for Another Location

Airport or City:

Trip Planner

Search our weather history database for the weather conditions in past years. The results will help you decide how hot, cold, wet, or windy it might be!

Date:

Astronomy

Mar. 30, 2014 Rise Set
Actual Time 7:06 AM CDT 7:37 PM CDT
Civil Twilight 6:41 AM CDT 8:02 PM CDT
Nautical Twilight 6:11 AM CDT 8:33 PM CDT
Astronomical Twilight 5:40 AM CDT 9:03 PM CDT
Moon 6:53 AM CDT (3/30) 7:49 PM CDT (3/30)
Length of Visible Light 13h 21m
Length of Day
12h 30m
Waning Crescent, 0% of the Moon is Illuminated
Mar 30
Waning Crescent
Mar 30
New
Apr 7
First Quarter
Apr 15
Full
Apr 22
Last Quarter

Hourly Weather History & Observations

Time (CDT) Temp. Windchill Dew Point Humidity Pressure Visibility Wind Dir Wind Speed Gust Speed Precip Events Conditions
12:53 AM 46.0 °F - 37.9 °F 73% 30.25 in 10.0 mi Calm Calm - N/A   Clear
1:53 AM 46.0 °F 44.8 °F 39.0 °F 76% 30.24 in 10.0 mi NE 3.5 mph - N/A   Clear
2:53 AM 45.0 °F 43.5 °F 37.9 °F 76% 30.24 in 10.0 mi ENE 3.5 mph - N/A   Clear
3:53 AM 41.0 °F - 37.0 °F 86% 30.23 in 10.0 mi Calm Calm - N/A   Clear
4:53 AM 41.0 °F 37.1 °F 37.0 °F 86% 30.22 in 10.0 mi NE 5.8 mph - N/A   Clear
5:53 AM 39.9 °F 36.7 °F 36.0 °F 86% 30.22 in 10.0 mi NE 4.6 mph - N/A   Clear
6:53 AM 39.9 °F 35.1 °F 36.0 °F 86% 30.23 in 10.0 mi NE 6.9 mph - N/A   Clear
7:53 AM 43.0 °F 37.7 °F 39.0 °F 86% 30.24 in 10.0 mi ENE 9.2 mph - N/A   Clear
8:53 AM 46.0 °F 41.9 °F 41.0 °F 83% 30.23 in 10.0 mi ENE 8.1 mph - N/A   Clear
9:53 AM 51.1 °F - 41.0 °F 68% 30.24 in 10.0 mi ENE 10.4 mph - N/A   Clear
10:53 AM 57.9 °F - 42.1 °F 56% 30.24 in 10.0 mi ENE 9.2 mph - N/A   Clear
11:53 AM 64.0 °F - 37.9 °F 38% 30.21 in 10.0 mi Variable 5.8 mph - N/A   Clear
12:53 PM 68.0 °F - 37.0 °F 32% 30.17 in 10.0 mi Variable 4.6 mph - N/A   Clear
1:53 PM 71.1 °F - 36.0 °F 28% 30.13 in 10.0 mi South 8.1 mph - N/A   Clear
2:53 PM 73.0 °F - 37.0 °F 27% 30.09 in 10.0 mi SSE 9.2 mph - N/A   Clear
3:53 PM 75.0 °F - 37.9 °F 26% 30.05 in 10.0 mi South 9.2 mph - N/A   Clear
4:53 PM 77.0 °F - 35.1 °F 22% 30.02 in 10.0 mi SSE 8.1 mph - N/A   Clear
5:53 PM 75.9 °F - 36.0 °F 23% 30.00 in 10.0 mi South 11.5 mph - N/A   Clear
6:53 PM 73.0 °F - 36.0 °F 26% 30.00 in 10.0 mi South 11.5 mph - N/A   Clear
7:53 PM 69.1 °F - 37.9 °F 32% 29.99 in 10.0 mi SSE 6.9 mph - N/A   Clear
8:53 PM 64.9 °F - 39.9 °F 40% 30.00 in 10.0 mi SE 5.8 mph - N/A   Clear
9:53 PM 63.0 °F - 39.9 °F 43% 30.01 in 10.0 mi East 4.6 mph - N/A   Clear
10:53 PM 57.0 °F - 41.0 °F 55% 29.99 in 10.0 mi East 6.9 mph - N/A   Clear
11:53 PM 55.9 °F - 41.0 °F 57% 29.98 in 10.0 mi East 6.9 mph - N/A   Clear